Location: Unspecified
(0.0000°N, 0.0000°E)
Time: 16:55:21
(UTC+00:00)

STARLINK-5741 - Visible Passes

Search period start: 14 January 2026 00:00
Search period end: 24 January 2026 00:00
Orbit: 558 x 560 km, 43.0° (Epoch: 14 January)

Date Brightness Start Highest point End Pass type
(mag) Time Alt. Az. Time Alt. Az. Time Alt. Az.
21 Jan 6.0 20:01:32 10° NW 20:02:17 15° NNW 20:02:17 15° NNW visible
22 Jan 4.3 19:58:23 10° NW 20:01:32 48° WNW 20:01:32 48° WNW visible
23 Jan 4.8 19:55:31 10° WNW 19:59:30 41° SW 20:01:12 28° S visible
